Temp
21 21 21 21 21 21 21 22 23 23 23 23 23 24 24 24 24 23 23 23 23 23 22 22 22 22 22 22 21 22 22 22 22 22 22 22 22 22 22 21 21 23 23 21 22 23 21 20 21 21 21 22 22 22 22 22 22 22 22 22 22 22 23 22 22 21 21 21 21 21 21 21 21 21 21 21 21 21 21 21 21 21 21 21 21
21 21 21 21 22 22 22 23 23 23 23 23 24 24 23 23 23 23 23 23 23 23 22 22 22 22 22 21 21 21 21 21 22 22 22 22 22 22 22 21 21 23 23 22 22 23 21 20 21 21 21 22 22 22 22 22 22 22 22 22 22 22 22 22 22 22 22 21 21 21 21 21 21 21 21 21 21 22 22 21 21 21 21 21 21
21 21 21 22 22 22 22 23 23 23 23 23 23 23 23 23 23 23 23 23 23 22 22 22 22 22 21 21 21 21 21 21 21 22 22 22 22 22 21 21 22 22 22 22 22 23 22 20 21 21 21 21 22 22 21 22 22 22 22 22 22 22 22 22 22 22 22 21 21 21 21 21 21 22 21 21 21 22 22 21 21 21 21 21 21
21 21 22 22 22 22 22 23 23 22 23 23 23 23 23 23 23 23 23 23 23 22 22 22 22 22 21 21 21 21 21 21 21 22 22 22 22 22 21 21 22 22 22 22 22 22 21 20 21 21 21 21 22 22 21 21 22 22 22 22 22 22 22 22 22 22 22 22 21 21 21 21 21 21 21 21 21 22 22 21 21 21 21 21 21
22 22 22 21 22 22 22 23 22 22 23 23 23 23 23 23 23 23 23 22 22 22 21 21 21 21 21 21 21 21 21 21 21 21 21 21 22 22 21 21 22 22 22 22 22 22 21 20 21 21 21 21 22 21 21 21 22 22 22 22 22 22 22 22 21 21 22 22 21 21 21 21 21 21 21 21 21 21 21 21 21 21 21 21 21
22 22 22 21 22 22 22 22 22 22 23 23 23 23 23 23 23 23 22 22 22 22 21 21 21 21 21 21 21 21 21 21 21 21 21 21 21 21 21 21 22 22 23 22 23 22 21 20 21 21 21 21 21 21 21 22 22 21 22 22 22 22 21 21 21 21 22 22 21 21 21 21 21 21 21 21 21 21 21 21 21 21 21 21 21
22 22 22 22 22 22 22 22 22 23 23 23 23 23 23 23 23 22 22 22 22 22 21 21 21 21 21 21 21 21 21 21 21 21 21 21 21 21 20 20 22 23 23 22 23 22 21 20 21 21 21 21 21 21 21 22 22 22 22 22 22 22 21 21 21 22 22 22 21 21 21 21 21 21 21 21 21 21 21 21 21 21 21 21 21
22 22 22 22 22 22 22 22 23 23 23 23 23 23 23 23 22 22 22 22 22 21 21 21 21 21 21 21 21 21 21 21 21 21 21 21 21 21 20 21 22 24 23 22 22 21 20 21 21 21 21 21 21 22 22 22 22 22 22 22 22 21 21 21 21 22 21 21 21 21 21 21 21 21 21 21 21 21 21 21 21 21 21 21 21
22 22 22 22 22 22 22 23 23 23 23 23 22 23 23 22 22 22 22 22 21 21 21 21 21 21 21 21 21 21 21 21 21 21 21 21 21 21 20 21 23 23 23 22 22 21 20 20 20 21 21 21 21 22 21 21 22 21 21 22 22 21 21 21 22 22 21 21 21 21 21 21 21 21 21 21 21 21 21 21 21 21 21 21 21
22 22 22 22 22 22 22 23 23 23 23 23 22 22 22 22 22 22 22 22 21 21 21 21 21 21 21 21 21 21 21 21 21 21 21 21 21 21 21 22 23 23 22 21 21 20 20 20 21 21 21 21 21 21 21 21 22 22 22 22 21 21 22 22 22 21 21 21 21 21 21 22 21 21 21 21 21 21 21 21 21 21 21 21 21
22 22 23 22 22 22 23 23 23 23 23 22 22 22 22 22 22 22 22 22 22 21 21 21 21 21 21 21 21 21 21 21 21 21 21 21 21 21 21 22 22 22 22 21 21 20 20 20 21 21 21 21 21 21 21 22 22 22 22 22 22 21 22 21 22 21 21 21 21 21 21 21 21 21 21 21 21 21 21 21 21 21 21 21 21
22 23 23 22 22 22 23 23 23 23 23 22 22 22 22 22 22 22 22 22 22 22 21 21 21 21 21 21 21 21 21 21 21 21 21 21 21 21 21 21 22 22 22 21 21 21 21 20 21 21 21 21 21 21 22 22 22 22 22 22 22 22 22 22 21 21 21 21 21 21 21 21 21 21 21 21 21 21 21 21 21 21 21 21 21
22 23 23 22 22 22 23 23 23 23 22 22 22 22 22 22 22 22 22 22 22 22 22 21 21 21 21 21 21 21 21 21 21 21 21 21 21 21 21 21 21 22 22 21 21 21 21 21 21 22 21 21 22 22 22 22 22 22 22 22 22 22 22 22 21 21 21 21 21 21 21 21 21 21 21 21 21 21 21 21 21 21 21 21 21
22 22 22 22 22 23 23 23 23 22 22 22 22 22 22 22 22 22 22 22 22 22 22 22 21 21 21 21 21 22 21 21 21 21 21 21 21 21 21 21 21 22 22 21 21 21 21 21 21 22 21 22 22 22 22 22 22 22 22 22 22 22 22 21 21 21 21 21 21 21 21 21 21 21 21 21 21 21 21 21 21 21 21 21 21
23 22 22 22 22 23 22 22 23 22 22 22 22 22 22 22 22 22 22 22 22 22 22 22 21 21 21 21 21 22 22 21 21 21 21 21 21 21 21 21 21 22 21 21 21 21 21 21 21 21 21 22 22 22 22 22 22 22 22 22 22 22 22 22 22 22 21 21 21 21 21 21 21 21 21 21 21 21 21 21 21 21 21 21 21
22 22 22 22 22 22 22 22 23 22 22 22 22 22 22 22 22 22 22 22 22 22 22 22 21 21 21 22 22 22 21 21 21 21 21 21 22 22 21 21 21 21 21 21 21 21 21 21 21 22 22 22 22 22 22 22 22 22 22 22 22 22 22 22 21 21 22 22 22 22 21 21 21 21 21 21 21 21 21 21 21 21 21 21 21
22 22 22 22 22 22 22 23 22 22 22 22 22 22 22 22 22 22 22 22 22 22 22 22 21 21 22 22 22 22 21 21 21 21 21 21 21 22 21 21 21 21 21 21 21 22 21 21 22 22 22 22 22 22 23 23 22 22 22 22 22 22 22 22 21 21 22 22 22 22 21 21 21 21 21 21 21 21 21 21 21 21 21 21 21
22 22 22 22 22 22 22 23 22 22 22 22 22 22 22 22 22 22 22 22 22 22 22 22 22 22 22 22 22 22 21 22 21 21 21 21 21 21 21 21 21 21 21 21 22 22 22 22 22 22 22 22 22 23 23 23 23 23 22 22 22 22 22 22 21 22 22 22 22 22 21 21 21 21 21 21 21 21 21 21 21 21 21 21 21
23 22 22 22 22 23 23 22 22 22 22 22 22 22 22 22 22 22 22 22 22 22 22 22 22 22 22 22 22 22 22 22 21 21 21 21 21 21 22 21 21 21 21 22 22 22 22 22 22 22 22 22 23 23 23 23 23 23 23 23 22 22 22 22 22 22 22 22 22 22 21 21 21 21 21 21 21 21 21 21 21 21 21 21 21
23 23 23 23 23 23 23 23 23 22 22 22 22 22 22 22 22 22 22 22 22 22 22 22 22 22 22 22 22 21 21 21 21 21 21 21 21 21 22 22 22 22 21 22 22 22 22 22 22 22 22 23 23 23 23 23 23 23 22 22 22 22 22 21 22 22 22 22 22 22 21 21 21 21 21 21 21 21 21 21 21 21 20 20 20
24 24 23 23 23 23 23 22 22 22 22 22 22 22 22 22 22 22 22 22 22 22 22 22 21 22 22 22 22 21 21 21 21 21 21 21 21 22 22 22 22 22 22 22 22 22 22 22 23 23 23 23 23 23 23 23 23 23 23 22 22 22 22 22 22 22 23 23 22 22 22 22 21 21 21 21 21 21 21 21 21 21 20 20 20
25 25 24 23 23 23 22 22 22 22 22 22 22 22 22 22 22 22 22 22 22 22 22 22 22 22 22 22 22 22 21 21 22 21 21 22 22 22 22 22 22 22 22 22 22 22 22 23 23 23 23 23 23 24 24 23 23 23 23 23 23 22 22 22 22 23 23 23 22 22 22 22 21 21 21 21 21 21 21 21 20 20 20 20 20
26 25 24 24 23 23 22 22 22 22 22 22 22 22 21 22 22 22 22 22 22 22 22 22 22 22 22 22 22 22 21 21 22 22 22 22 22 22 22 22 22 22 22 22 23 23 23 23 24 24 24 24 24 24 24 24 23 23 24 23 23 23 23 23 23 23 23 23 22 22 22 22 21 21 21 21 21 21 21 21 20 20 20 20 20
26 25 24 24 23 23 23 23 23 22 22 22 22 22 22 22 22 22 22 22 22 22 22 22 22 22 22 22 22 21 21 21 22 22 22 22 22 22 22 22 22 22 22 23 23 23 23 24 24 24 24 24 24 24 24 24 23 23 24 24 23 23 23 23 23 23 23 23 22 22 22 22 22 21 21 21 21 21 21 21 20 20 20 20 20
26 25 24 24 23 23 23 23 23 23 23 23 23 22 22 21 22 22 22 22 22 22 22 22 22 22 22 22 22 22 21 22 22 22 22 22 22 22 22 23 23 23 23 23 23 23 23 23 24 24 24 24 24 24 24 24 24 24 24 24 23 23 23 23 23 23 23 23 22 22 22 22 22 21 21 22 21 21 21 20 20 20 20 20 20
25 25 24 24 24 23 23 23 23 23 23 23 23 23 22 22 22 22 22 22 22 22 22 22 22 22 22 22 22 22 22 22 22 23 23 23 23 23 23 23 23 23 23 23 23 23 23 23 24 24 24 24 24 24 24 24 24 24 24 24 24 23 23 23 23 23 23 23 22 22 22 22 22 21 21 21 21 21 21 20 20 20 20 20 20
25 25 24 24 23 23 23 23 23 23 23 23 23 23 23 23 22 23 23 23 23 23 22 22 22 22 22 22 22 22 22 22 23 23 23 23 23 23 23 23 23 23 23 23 23 23 23 23 23 24 24 24 24 25 25 25 25 24 24 24 24 24 24 23 23 23 23 23 22 22 22 22 22 21 21 21 21 21 21 20 20 20 20 20 20
25 25 24 24 23 23 23 23 23 23 23 23 23 23 23 23 23 23 23 23 23 23 23 22 22 22 22 22 22 22 23 23 23 23 23 23 23 23 23 23 23 23 23 23 23 23 23 23 24 24 24 24 25 25 25 25 25 25 25 24 24 24 24 24 23 23 23 23 22 22 22 22 22 22 21 21 21 21 21 21 20 20 20 20 20
25 25 24 24 23 23 23 23 23 23 23 24 23 23 23 23 23 23 23 23 23 23 23 22 22 22 22 22 22 22 23 23 23 23 23 23 23 23 23 23 23 23 23 23 24 24 24 24 24 25 25 25 25 26 25 25 25 25 25 25 25 24 24 24 24 23 23 23 23 22 22 22 22 22 22 21 21 21 21 21 21 21 21 20 20
25 25 24 24 24 23 24 23 23 23 23 23 23 23 23 24 23 23 23 23 23 23 23 23 23 23 22 22 22 22 23 23 23 23 23 23 23 23 23 23 23 23 24 24 24 24 25 25 25 25 25 26 26 26 26 26 26 25 25 25 25 25 24 24 24 24 24 24 23 23 23 22 22 22 22 22 22 21 21 21 21 21 21 21 21
26 25 24 24 24 24 24 24 24 24 23 23 23 24 24 24 24 23 23 23 23 23 23 23 23 23 23 23 23 23 23 23 23 23 23 23 23 23 23 23 23 24 24 24 24 24 25 25 25 25 26 26 26 26 26 26 26 26 26 26 25 25 25 24 24 24 24 24 24 24 23 23 23 23 23 23 22 22 22 22 21 21 21 21 21
26 26 25 25 24 24 25 25 25 24 24 24 24 24 24 24 24 24 24 23 23 23 23 23 23 23 23 23 23 23 23 23 23 23 23 24 23 23 23 23 23 24 24 24 24 24 25 25 25 26 26 26 26 26 26 26 26 26 26 26 26 25 25 25 24 24 24 24 24 24 24 24 23 23 23 23 23 23 23 23 22 22 22 22 22
27 26 26 25 25 25 25 25 25 25 24 24 24 24 24 24 24 24 24 23 23 23 23 23 23 23 23 23 23 23 23 23 23 23 24 24 24 24 24 24 23 24 24 24 24 24 25 25 25 26 26 26 26 26 26 26 26 26 26 26 26 26 25 25 25 25 25 25 24 24 24 24 24 24 24 23 23 23 23 23 23 23 23 23 22
27 27 26 26 26 25 25 25 25 25 25 24 24 25 25 24 24 24 24 24 24 23 23 23 24 24 24 24 24 24 23 23 23 23 24 24 24 24 24 24 24 24 24 24 24 25 25 25 25 25 26 26 26 26 26 26 26 26 27 26 26 26 26 25 25 25 25 25 25 25 25 24 24 24 24 24 24 24 24 23 23 23 23 23 23
27 27 27 27 26 26 26 25 25 25 25 25 25 25 25 25 24 24 25 24 24 24 23 24 24 23 24 24 23 24 24 24 24 23 23 24 24 24 24 24 24 24 24 24 24 25 25 25 25 26 26 26 26 27 27 27 27 27 27 26 26 26 26 26 26 26 25 26 25 25 25 25 24 24 24 24 24 24 24 24 24 24 24 24 24
27 27 27 27 27 26 26 26 26 25 25 25 25 25 25 25 25 25 25 24 24 24 24 24 24 23 23 23 23 24 24 24 24 24 24 24 24 24 24 24 24 24 24 24 24 25 25 25 25 26 26 26 27 27 27 27 27 27 27 26 26 26 26 26 26 26 26 26 26 25 25 25 25 25 25 24 25 25 25 25 25 24 25 24 24
27 27 27 27 27 26 26 26 26 26 25 25 26 26 25 25 25 25 24 24 24 24 24 23 24 24 24 23 23 24 24 24 24 24 24 24 24 24 24 24 24 24 24 24 24 24 25 25 25 26 26 26 26 27 27 27 27 27 27 26 26 26 26 26 26 26 26 26 26 25 25 25 25 25 25 25 25 25 25 25 25 24 25 25 25
28 28 28 27 27 27 26 26 26 26 26 26 26 26 26 26 25 25 24 24 24 24 24 24 24 24 24 24 24 24 24 24 24 24 24 23 23 24 24 24 24 24 24 24 24 24 24 25 25 26 26 26 26 27 27 27 27 27 27 27 26 26 26 26 26 26 26 26 26 26 25 26 26 26 25 25 25 25 25 25 25 24 25 25 25
28 28 28 28 27 27 26 26 26 26 26 26 26 26 26 25 25 25 24 24 24 24 24 24 24 24 24 24 24 24 24 24 23 23 24 23 23 24 24 24 24 24 24 24 24 24 25 25 25 25 26 26 26 27 27 27 27 27 27 27 26 26 26 26 26 26 26 26 26 26 26 26 26 26 26 25 25 25 25 25 25 25 25 25 25
28 28 28 28 27 27 26 26 26 26 26 26 26 26 26 25 25 25 25 24 24 24 24 24 24 24 24 24 24 24 24 24 24 23 24 24 23 24 24 24 24 24 24 24 24 25 25 25 25 25 26 26 26 27 27 27 27 27 27 27 27 26 27 27 26 26 26 26 27 27 26 26 26 27 26 26 26 26 26 26 26 25 25 25 25
28 28 28 28 27 27 26 26 26 26 26 25 25 26 25 25 25 25 25 24 24 24 24 24 24 24 24 24 24 24 24 24 24 24 24 24 24 24 24 24 24 24 24 24 24 24 25 25 25 25 26 26 27 27 27 27 27 27 27 27 27 27 27 27 27 27 27 27 27 27 27 27 27 27 27 26 26 26 26 26 26 26 26 26 25
28 28 28 28 27 27 26 26 25 25 25 25 25 25 25 25 25 25 25 25 24 24 24 24 24 24 24 24 24 24 24 24 24 24 24 24 24 24 24 24 24 24 24 24 24 24 25 25 25 25 26 26 26 27 27 27 27 27 27 27 27 27 27 27 27 27 27 27 27 28 28 27 27 27 27 27 27 27 27 26 26 26 26 26 26
28 28 28 28 27 27 26 26 25 25 25 25 25 25 26 26 26 25 25 25 24 25 25 24 24 24 24 24 24 24 24 24 24 24 24 24 24 24 24 24 24 24 24 24 24 24 25 25 25 25 26 26 26 27 27 27 27 27 27 27 26 26 27 27 27 27 27 28 28 28 28 28 28 28 28 28 27 27 27 27 26 26 26 26 26
28 28 28 28 27 27 26 26 25 25 25 25 25 25 26 26 26 26 26 25 25 25 25 24 24 24 24 23 24 24 24 24 24 24 24 24 24 24 24 24 24 24 24 24 24 25 25 25 25 25 26 26 26 27 27 27 27 27 27 27 26 26 27 27 28 28 28 28 29 29 29 28 28 28 28 28 28 28 27 27 27 27 27 27 27
28 27 27 28 27 27 26 26 26 25 25 25 26 26 26 26 26 26 26 25 24 24 24 24 23 24 24 23 24 24 24 24 24 24 24 24 24 24 24 24 24 24 24 24 24 24 25 25 25 25 26 26 26 27 27 27 27 27 27 27 27 27 27 27 28 29 29 29 29 29 29 29 29 28 28 28 28 28 28 28 28 28 27 27 27
28 27 27 27 27 27 26 26 26 25 25 26 26 26 26 26 26 26 25 24 24 24 24 24 24 24 24 24 24 24 24 24 24 24 24 24 24 24 24 24 24 24 24 24 24 24 25 25 25 25 26 26 26 27 27 27 27 28 27 27 28 28 28 28 28 28 30 30 30 30 30 30 30 29 29 29 28 28 28 28 28 28 28 28 28
28 28 27 27 27 27 26 26 26 26 25 26 26 26 26 26 26 26 25 25 24 25 25 25 24 24 24 24 24 24 24 24 24 24 24 24 24 24 24 24 24 24 24 24 24 25 25 25 25 26 26 26 26 27 27 27 27 28 27 27 28 28 28 28 28 28 29 30 30 31 30 30 30 30 29 29 29 29 29 29 28 28 28 28 28
28 28 27 27 27 27 26 26 26 26 26 26 26 26 26 26 26 26 26 25 25 25 25 25 24 24 24 24 24 24 24 24 24 24 24 24 24 24 24 24 24 24 24 24 25 25 25 25 25 26 26 26 26 26 27 27 27 27 27 27 28 28 28 29 29 28 28 28 29 30 30 30 30 30 30 30 30 29 29 29 29 29 29 28 28
28 28 28 27 27 27 26 26 26 26 26 26 26 26 26 26 26 26 26 26 26 26 25 25 24 24 24 24 24 24 24 24 24 24 23 24 24 24 24 24 24 24 24 25 25 25 25 25 26 26 26 26 26 26 26 27 27 27 27 28 28 28 29 29 29 29 28 28 29 28 29 30 30 30 30 30 30 30 30 29 29 29 29 28 28
29 28 28 27 27 26 26 26 26 26 26 26 26 26 26 26 26 26 26 26 26 26 25 25 25 24 24 24 24 24 24 24 24 24 24 24 24 24 24 24 24 24 25 25 25 25 25 25 26 25 25 26 26 26 26 26 27 27 27 28 28 28 28 28 29 29 29 29 28 28 28 30 30 30 30 30 30 30 30 30 30 29 29 28 28
29 29 28 27 26 26 26 26 26 26 26 26 26 26 26 26 26 26 26 26 26 26 26 26 25 25 24 24 24 24 24 24 24 24 24 24 24 24 24 24 24 24 25 25 25 25 25 25 25 25 25 26 26 26 26 26 27 27 27 27 28 28 28 28 29 29 29 28 28 28 28 30 31 30 30 30 30 30 30 30 29 29 29 29 28
Height
819 820 821 821 822 822 823 822 823 823 822 823 824 825 824 824 823 824 826 827 829 830 831 832 832 832 832 832 833 833 834 834 835 836 836 836 837 838 839 840 840 837 837 841 841 840 840 840 839 840 840 841 840 840 841 841 842 843 844 845 845 845 846 846 847 848 849 849 849 849 850 849 849 850 850 850 851 851 852 852 852 852 852 852 852
818 820 821 821 822 822 823 822 823 823 823 824 825 826 825 824 823 825 827 829 830 831 832 832 832 833 833 833 833 834 835 835 836 836 836 837 837 839 840 841 840 838 839 842 842 840 841 842 841 841 842 841 840 841 841 843 843 844 845 846 847 847 847 848 849 850 850 850 850 851 851 851 851 851 851 852 852 853 853 853 853 853 853 853 853
818 820 821 822 822 822 823 823 823 823 824 825 826 827 825 824 824 827 829 830 831 832 832 832 833 833 834 834 835 835 835 836 836 837 837 837 838 839 840 841 841 839 840 843 842 841 841 842 842 842 843 842 841 842 842 844 844 845 846 847 848 848 849 850 851 851 851 851 851 852 852 852 852 853 853 853 854 854 854 855 855 855 855 855 855
818 820 821 822 823 823 823 823 824 824 825 826 827 827 825 825 826 829 830 831 832 832 833 833 834 834 835 835 835 836 836 836 837 837 838 838 839 840 841 842 841 839 841 842 842 841 842 843 843 842 843 843 843 843 844 845 845 846 847 848 849 850 851 851 852 852 852 853 853 853 853 853 854 854 854 854 855 855 855 856 856 856 856 856 856
819 820 821 822 823 823 824 824 824 824 826 827 827 826 825 826 828 830 831 832 833 833 834 835 835 835 835 835 836 836 836 837 838 838 838 839 839 840 841 842 842 841 841 841 841 842 843 843 842 842 844 845 845 844 845 846 847 848 849 850 850 851 852 852 853 854 854 854 854 854 854 855 855 855 856 856 856 856 857 857 857 857 857 858 858
819 820 822 822 823 824 824 824 824 825 826 827 827 826 826 827 830 831 832 833 833 834 835 835 835 836 836 836 837 837 837 838 838 839 839 840 840 841 842 842 842 841 840 841 842 843 844 844 843 843 845 846 846 846 846 847 848 849 850 851 852 852 853 854 854 855 855 855 856 855 856 856 856 857 857 857 858 858 858 858 858 858 859 859 859
819 821 822 822 824 824 824 824 825 826 827 828 828 827 827 829 831 832 833 834 834 835 835 836 836 836 836 837 837 837 838 838 839 840 840 841 841 842 843 843 842 840 840 842 843 843 844 845 845 844 846 847 847 847 848 848 849 850 852 852 853 854 854 855 856 856 856 857 857 857 857 857 857 858 858 858 859 859 859 859 859 860 860 861 861
820 822 822 823 824 824 824 825 825 826 827 828 828 828 828 830 832 833 834 834 835 835 835 836 836 837 837 837 838 838 838 838 839 840 841 841 842 843 845 844 842 839 840 843 843 843 845 846 846 846 847 848 848 849 850 850 851 852 853 853 854 855 856 856 857 858 858 858 858 858 858 858 859 859 860 860 860 860 860 861 861 862 862 862 862
822 822 823 824 824 825 825 825 826 827 828 829 829 829 830 831 833 834 834 835 835 836 836 836 837 837 837 838 838 838 839 839 840 841 841 842 843 845 846 844 840 839 842 843 843 844 845 846 847 848 849 849 850 851 852 852 853 854 854 855 856 856 857 858 858 859 859 860 860 860 860 860 860 860 861 861 861 861 861 862 862 863 863 864 864
822 822 824 824 825 826 825 826 826 827 828 829 830 830 831 832 834 834 835 835 835 836 836 837 837 837 838 838 839 839 840 840 841 841 842 842 843 845 845 842 840 841 843 844 844 845 846 847 848 849 850 851 851 852 853 854 854 855 855 856 857 858 859 859 860 860 861 861 861 861 861 861 861 861 861 862 862 863 863 863 864 864 865 865 865
822 823 824 825 826 826 826 827 827 828 829 830 831 831 832 833 834 834 835 835 836 836 837 837 838 838 838 839 839 840 840 841 842 842 842 843 844 845 844 842 842 843 844 845 846 846 847 848 849 850 851 852 853 854 855 855 856 856 856 857 859 860 860 861 861 862 862 862 862 862 863 862 862 862 863 863 864 864 864 865 865 866 866 866 866
822 823 824 826 827 827 828 828 828 829 829 830 831 832 833 833 835 835 835 836 836 837 837 838 838 839 839 840 840 841 841 842 842 843 843 844 844 845 844 844 843 843 845 847 848 847 847 849 850 851 852 853 854 855 856 856 857 858 858 859 860 861 862 862 863 863 863 863 863 863 863 863 863 863 864 864 865 865 866 866 867 867 868 867 868
823 824 825 827 827 829 828 828 829 829 830 831 832 833 834 834 835 835 836 836 836 837 837 838 839 839 840 840 841 841 842 843 843 843 844 845 845 845 845 845 844 845 847 848 849 849 849 850 851 852 853 854 855 856 857 858 858 859 860 861 862 862 863 863 864 864 864 864 864 864 864 864 864 865 865 866 866 867 867 868 868 869 869 869 869
823 824 826 827 828 829 829 830 830 830 832 832 833 833 834 835 836 836 836 836 837 838 838 839 839 840 841 841 841 842 842 843 844 844 845 845 845 845 845 846 845 846 848 849 850 850 851 852 853 853 854 856 857 857 858 859 859 860 861 862 863 863 864 864 865 865 865 865 865 865 865 865 865 866 866 867 867 868 868 869 869 870 870 870 870
823 824 826 828 828 830 830 830 830 832 833 833 834 834 835 836 836 837 837 837 838 838 839 840 840 841 841 842 842 842 843 844 845 845 846 846 845 845 846 847 847 848 849 850 851 852 853 853 855 855 856 857 858 859 859 860 861 862 862 863 864 865 865 865 865 866 866 866 866 866 866 866 866 867 867 868 869 869 869 870 870 870 871 871 871
824 825 827 828 829 830 831 831 832 833 833 834 835 835 836 836 837 837 838 838 838 839 839 840 841 842 842 843 843 843 844 845 846 846 847 847 846 846 848 849 848 849 850 852 853 853 854 855 856 857 858 859 859 860 860 861 862 863 864 865 866 866 866 866 866 867 867 867 867 867 867 867 868 868 868 869 870 870 870 871 871 871 872 872 872
826 826 827 829 830 831 831 832 833 834 834 835 835 836 837 837 838 838 839 839 839 840 840 841 842 842 843 843 844 844 845 846 847 848 849 849 847 847 849 850 850 851 852 853 854 855 856 857 858 858 859 860 860 861 862 863 863 864 865 866 867 867 867 867 867 868 868 868 868 868 868 868 869 869 869 870 870 871 871 871 872 872 872 873 873
827 828 828 829 830 831 832 833 833 834 835 835 836 837 837 838 838 839 839 840 840 840 841 842 843 843 844 844 845 846 847 847 848 849 850 850 850 849 850 851 852 852 853 854 855 856 857 858 859 860 860 861 862 862 863 864 865 866 867 867 868 868 868 868 868 868 868 868 868 869 869 869 870 870 871 871 871 871 872 872 873 873 873 874 873
828 829 829 830 831 832 833 834 834 834 835 836 837 838 839 839 839 839 840 840 841 841 842 843 843 844 845 846 846 847 848 848 849 850 851 852 851 851 851 852 853 854 855 856 857 858 859 860 860 861 862 863 863 864 865 865 866 867 868 868 869 869 869 869 869 869 869 869 869 870 870 870 871 871 872 872 872 872 873 873 873 874 874 874 874
829 829 830 831 831 833 833 834 835 835 836 836 838 838 839 839 839 840 840 841 842 842 843 843 844 845 846 847 848 848 849 849 850 851 852 853 853 853 853 854 855 856 856 857 858 859 860 861 862 863 863 864 865 865 866 866 867 868 869 870 870 871 871 871 870 870 870 870 870 871 871 871 871 872 872 872 872 873 873 874 874 874 875 875 875
830 830 830 832 832 833 834 835 835 835 836 837 838 839 840 840 840 841 841 842 842 843 843 844 845 845 847 848 848 849 849 850 851 852 853 854 855 855 855 856 857 857 858 859 860 861 862 862 863 864 865 865 866 867 867 867 868 869 870 871 872 872 872 871 871 871 871 871 871 871 872 872 872 873 873 873 873 874 874 874 875 875 875 875 875
829 830 831 832 833 834 834 835 835 836 837 838 838 839 840 841 841 842 842 843 843 844 844 845 846 846 847 848 849 850 850 852 852 853 854 855 856 857 857 858 858 859 860 860 861 862 863 863 864 865 866 866 867 867 868 868 869 870 871 871 872 872 872 872 872 872 871 871 872 872 872 873 873 873 873 874 874 874 875 875 875 876 876 876 876
829 830 831 832 833 834 835 835 835 837 837 838 839 839 841 841 842 842 843 844 844 845 845 846 846 847 848 849 850 851 852 853 853 854 855 856 857 858 859 859 860 861 861 862 862 863 864 865 866 866 867 867 868 869 869 870 870 871 871 872 872 872 872 872 872 872 872 872 872 873 873 873 874 874 874 874 875 875 875 876 876 876 876 876 876
829 830 831 833 833 834 835 836 836 837 838 838 839 840 841 842 842 843 844 845 845 845 846 846 847 848 849 850 851 852 853 854 855 856 856 857 858 859 860 861 861 862 863 863 863 864 865 866 867 867 868 868 869 870 870 870 871 872 872 872 873 873 872 872 872 872 872 873 873 873 874 874 874 874 875 875 875 876 876 876 876 877 877 877 877
828 830 831 833 834 835 835 836 837 837 838 839 839 841 842 842 843 843 844 845 846 846 847 847 848 849 850 851 852 852 854 854 856 857 857 858 859 860 861 862 862 863 864 864 864 865 866 867 867 868 868 869 870 871 871 871 871 872 872 873 873 873 873 873 873 873 873 874 874 874 875 874 875 875 875 876 876 876 876 877 877 877 877 877 877
829 831 832 833 834 835 836 836 837 838 839 839 840 841 842 843 843 844 844 845 847 847 848 848 849 850 851 852 852 853 854 855 856 857 859 860 860 861 862 863 864 864 865 865 866 866 867 867 868 868 869 869 870 871 872 872 872 872 873 873 873 873 873 873 873 874 874 875 875 875 875 875 875 876 876 876 876 877 877 877 877 877 877 877 877
829 831 832 833 834 835 837 837 838 838 839 840 840 842 843 844 844 844 845 846 847 848 849 850 850 851 852 853 854 855 855 856 857 858 860 861 862 862 863 864 865 866 866 867 867 867 868 868 869 869 869 870 870 871 872 872 873 873 873 873 873 873 873 874 874 875 875 875 876 875 876 876 876 876 876 877 877 877 877 877 877 877 877 877 877
829 831 832 833 834 835 836 837 838 839 839 840 841 843 843 844 845 846 846 847 848 849 850 851 851 852 853 854 855 856 856 857 858 859 860 861 862 863 864 865 865 866 867 867 868 868 868 869 869 870 870 871 871 872 873 873 873 873 873 873 874 874 873 874 875 875 876 876 876 876 876 876 876 877 877 877 877 877 877 877 877 877 877 876 876
829 830 832 833 834 835 836 838 838 840 840 841 842 843 844 845 846 847 847 848 848 849 850 851 852 853 854 855 856 857 857 858 859 860 861 862 863 864 865 865 866 867 867 868 868 868 868 869 870 870 870 871 872 873 873 873 874 874 874 874 874 874 874 875 875 876 876 876 876 876 876 876 877 877 877 877 877 877 877 877 877 876 876 876 875
829 830 832 833 834 835 836 837 839 840 841 841 843 843 844 845 846 847 848 849 849 850 851 852 853 854 854 856 857 857 858 858 859 860 861 862 863 864 865 866 867 867 868 868 869 869 869 870 870 870 871 872 872 872 873 873 873 874 874 874 874 874 874 875 875 876 876 876 876 876 876 876 877 877 877 877 877 877 876 876 876 876 875 875 874
828 830 831 833 834 835 836 837 839 840 841 842 843 844 845 845 847 848 849 850 850 851 851 852 853 854 855 856 857 858 858 859 860 861 862 863 864 865 865 866 867 868 868 869 869 870 870 870 871 871 872 872 873 873 873 874 874 874 874 875 875 875 875 875 876 876 876 876 876 876 876 877 877 877 877 877 877 876 876 876 875 875 875 874 874
828 829 831 833 834 835 837 838 839 840 842 843 844 845 845 846 847 848 849 850 851 852 852 853 854 855 856 856 857 858 859 859 860 861 862 863 864 865 866 866 867 868 868 869 870 870 870 871 871 871 872 872 873 873 874 874 874 874 874 875 875 875 875 876 876 876 876 876 876 877 877 877 877 877 877 877 877 876 876 876 875 875 874 874 873
827 829 831 832 834 836 837 838 839 841 842 843 844 845 846 846 847 848 849 850 851 852 853 854 854 855 856 857 858 858 859 860 861 862 863 863 864 865 866 866 867 868 869 869 870 870 870 871 871 871 872 872 873 873 874 874 874 874 875 875 875 875 875 876 876 876 876 876 877 877 877 877 877 877 877 876 876 876 876 875 875 874 874 874 873
826 829 831 832 835 836 838 839 840 841 842 843 844 845 846 847 848 848 849 850 851 853 853 854 855 855 856 857 858 859 859 860 861 862 863 864 864 865 866 866 867 868 869 869 869 870 870 870 871 871 872 872 873 873 874 874 874 875 875 875 875 876 876 876 876 876 876 876 876 877 876 877 877 877 877 876 876 875 875 875 874 874 873 873 873
825 828 831 832 834 836 838 839 840 841 842 843 844 845 846 847 848 849 850 851 852 853 853 854 855 856 857 858 859 859 860 860 861 863 864 864 865 865 866 867 867 868 868 869 869 870 870 870 871 871 872 872 873 873 874 874 875 875 875 875 876 876 876 876 876 876 876 876 876 876 876 877 876 877 876 876 876 875 875 875 874 874 873 873 873
824 828 830 832 834 836 838 839 840 842 843 844 845 846 847 847 848 850 850 851 852 853 854 855 856 857 857 858 859 860 860 861 862 863 864 865 865 866 866 867 868 868 869 869 870 870 871 871 871 871 872 872 873 873 874 874 875 875 875 876 876 876 876 877 877 876 876 875 876 876 876 876 876 876 876 876 875 875 875 874 874 873 873 873 872
824 827 829 831 834 835 837 839 840 842 843 844 845 846 847 848 849 850 851 852 853 853 854 855 856 857 858 858 859 860 861 861 862 863 864 865 865 866 866 867 868 868 869 869 870 871 871 872 872 872 872 872 873 873 874 874 875 875 875 876 876 876 876 876 877 877 876 876 876 876 875 875 875 875 875 875 875 875 875 874 874 874 873 873 872
824 827 829 831 833 835 837 839 841 842 844 845 845 847 848 849 850 851 852 853 854 854 855 855 856 857 858 858 859 860 861 862 863 863 864 865 865 865 866 867 868 868 869 870 870 871 871 872 872 872 873 873 873 873 874 874 875 875 875 876 876 876 876 876 876 876 876 876 875 875 875 875 875 875 875 875 875 875 875 874 874 874 873 873 873
824 827 829 831 833 835 837 839 841 841 843 845 846 847 847 849 850 851 852 853 855 855 855 856 856 857 858 858 860 860 861 862 863 864 864 865 865 866 867 868 868 869 869 870 871 871 871 872 872 873 873 873 873 873 874 874 875 875 875 876 876 876 876 876 876 875 875 875 875 875 875 874 874 874 874 874 875 875 874 874 874 874 873 873 873
824 827 828 831 832 835 837 839 841 841 843 844 845 847 847 849 850 851 852 853 855 855 856 856 857 858 858 859 860 861 861 862 863 864 864 865 866 866 867 868 869 869 869 870 871 872 872 872 873 873 873 874 874 874 874 874 875 875 875 876 876 876 875 875 874 874 874 874 874 874 874 874 874 874 874 874 874 874 874 874 874 874 873 873 873
824 826 828 830 832 834 836 838 840 842 843 844 845 846 847 848 849 851 852 853 854 855 856 857 857 858 859 859 860 861 862 862 863 863 864 865 865 866 867 868 869 869 870 870 871 872 872 873 873 873 873 873 874 874 874 875 875 875 875 875 875 875 875 874 874 873 873 873 873 873 874 874 873 873 873 873 874 874 874 874 874 873 873 873 873
823 826 828 830 832 834 836 838 840 841 843 844 845 846 847 847 849 850 851 853 854 854 856 857 857 858 859 860 861 862 862 863 863 863 864 865 865 866 867 868 869 870 870 870 871 872 872 873 873 873 873 873 874 874 874 874 875 875 874 875 875 874 874 873 873 873 872 872 872 872 873 873 873 873 873 874 873 874 874 874 873 873 873 873 873
823 826 828 830 832 833 835 837 839 841 843 844 845 846 847 848 849 850 851 853 854 855 856 856 857 858 859 860 861 862 862 863 864 864 865 865 866 867 867 868 868 869 870 870 871 872 873 873 874 874 873 873 873 874 874 874 874 874 874 875 875 875 875 873 872 872 871 871 871 871 872 872 872 873 873 873 873 873 874 873 873 873 873 873 872
822 825 827 830 832 833 835 836 838 841 842 844 845 846 847 848 850 850 851 853 854 855 856 856 857 858 859 860 861 862 862 863 864 864 865 865 866 867 867 867 868 869 870 870 871 872 873 873 873 874 873 873 873 873 874 874 874 873 874 876 875 877 879 874 870 871 870 870 870 870 872 871 872 873 873 873 873 873 873 873 873 873 873 872 872
821 824 826 829 831 832 834 836 838 840 842 844 845 846 847 848 850 851 852 853 854 856 856 857 857 858 859 859 860 861 862 863 863 864 865 865 866 866 867 867 868 869 870 870 871 872 872 873 873 873 873 873 873 873 873 873 874 873 873 875 876 879 879 873 870 870 869 869 869 870 871 871 871 872 872 873 873 873 873 873 873 873 873 872 872
820 823 825 828 830 832 834 836 838 840 842 843 845 846 847 848 849 850 851 853 854 855 856 856 857 858 859 859 860 861 862 863 863 864 865 865 866 866 867 868 868 869 870 871 871 872 872 873 873 873 873 873 873 873 873 873 873 873 873 873 875 876 874 871 872 872 869 867 868 869 870 869 870 871 872 872 872 872 872 873 873 873 872 872 871
819 822 825 828 830 832 834 836 838 840 842 843 845 846 846 847 849 849 851 852 853 855 856 857 857 858 859 860 861 861 862 863 864 864 865 865 866 867 867 868 869 869 870 871 871 872 872 873 873 873 873 873 873 873 873 873 873 873 873 873 872 872 871 871 871 873 873 870 868 869 869 869 871 871 871 871 871 871 872 872 873 873 872 872 871
818 822 824 827 829 831 834 835 837 840 841 843 844 845 846 847 848 849 851 852 853 854 856 857 858 859 859 860 861 862 862 863 864 864 865 866 867 867 868 868 869 869 870 871 871 872 872 872 872 873 873 873 874 874 873 873 873 873 873 873 872 871 871 870 870 871 873 874 871 869 869 870 871 871 871 871 871 871 871 872 872 872 872 872 871
818 821 823 826 828 830 833 835 837 839 841 843 844 845 847 847 848 849 850 852 853 854 855 857 858 859 859 860 861 861 862 863 864 865 865 866 867 868 868 868 869 869 870 870 871 871 871 872 872 873 873 873 874 874 874 874 874 874 873 872 872 871 870 870 870 870 870 873 873 870 869 870 870 871 871 871 872 871 871 872 872 872 872 872 872
817 820 822 824 827 829 833 835 837 839 840 842 844 845 847 848 848 849 850 851 852 853 855 856 857 859 859 860 861 861 862 863 864 864 865 866 867 867 867 868 868 869 869 870 870 871 871 872 872 873 873 873 874 874 874 874 874 873 873 872 872 872 872 870 870 870 870 871 872 870 869 869 869 870 871 871 872 872 872 872 872 873 873 873 872
816 819 822 823 826 829 831 834 837 839 840 842 844 845 846 848 849 850 850 851 852 852 853 855 856 858 859 860 861 861 862 863 863 864 865 865 865 866 866 867 868 868 869 870 870 871 871 872 873 873 873 874 874 874 874 874 874 874 873 873 872 872 872 871 871 871 870 870 871 870 870 869 868 869 870 871 872 872 872 872 872 873 873 873 872
Wind_Speed
18 19 19 18 17 16 17 20 21 19 18 16 15 15 15 15 14 14 13 13 12 11 11 11 10 10 11 12 12 13 14 14 14 14 14 15 16 17 18 18 17 15 16 19 18 17 16 15 18 18 18 19 19 20 20 21 22 22 21 21 22 23 23 24 23 22 21 22 22 21 19 19 18 18 19 21 21 20 20 21 21 21 21 20 21
20 21 20 19 19 18 19 20 20 19 18 15 15 15 15 15 14 13 12 11 11 11 11 10 10 9 10 11 12 12 12 12 13 13 13 14 16 17 18 19 18 16 16 18 17 16 16 15 17 17 18 18 18 19 20 21 22 22 21 21 22 22 23 23 22 21 21 21 20 19 17 17 17 18 20 21 21 20 21 22 21 21 21 20 20
22 23 21 20 19 20 20 19 19 17 16 15 15 15 14 13 12 12 11 11 11 11 11 11 10 9 10 11 11 11 11 12 12 12 12 13 14 15 18 19 18 17 17 18 17 16 15 16 16 16 18 18 19 19 19 21 22 22 21 21 22 22 22 22 21 20 19 19 19 18 18 18 19 20 20 21 21 20 21 21 20 21 20 20 20
23 25 22 20 19 20 20 18 18 17 15 14 15 14 13 11 10 11 11 11 11 12 11 11 10 10 11 11 11 10 11 12 12 12 13 13 13 15 17 19 18 18 19 18 18 17 16 16 16 16 18 19 20 20 19 20 22 22 21 21 21 22 21 21 20 19 19 19 19 20 20 20 20 20 19 20 20 20 20 20 20 20 20 19 19
25 25 23 21 20 20 19 19 17 16 15 14 15 13 11 9 10 11 11 11 11 12 11 11 11 10 11 11 11 10 11 12 12 13 13 13 14 15 18 21 18 19 20 18 19 18 16 16 15 15 17 19 20 20 20 19 20 21 20 21 21 21 20 20 20 19 19 19 20 20 21 20 20 19 19 19 19 20 20 20 20 20 20 19 19
27 25 23 22 20 20 19 18 17 15 15 15 14 12 9 8 10 11 11 11 11 11 11 11 11 10 11 12 11 11 11 12 12 12 13 14 15 16 18 21 19 17 19 19 19 18 16 16 15 15 17 18 19 19 20 21 20 19 19 20 20 20 19 20 19 18 18 19 20 20 21 19 18 18 18 18 19 19 19 19 19 19 19 19 19
27 25 23 22 21 20 19 18 17 15 15 14 13 11 9 8 10 10 11 10 10 12 12 11 11 12 12 12 12 12 12 13 13 13 13 14 15 16 19 23 20 16 19 20 20 18 16 16 15 16 17 18 19 20 21 21 20 19 19 19 20 19 19 20 19 18 19 19 20 20 20 18 18 17 17 17 18 18 17 18 19 18 18 18 18
26 24 22 22 22 21 19 18 17 16 15 14 13 11 8 9 10 11 11 10 11 12 12 11 11 12 12 12 13 13 13 14 14 14 13 15 15 16 21 23 19 14 18 21 20 17 15 16 15 16 17 19 20 20 20 20 20 19 19 19 19 18 18 19 18 18 19 18 18 19 18 18 18 17 16 17 17 17 17 18 18 17 17 17 17
25 23 22 22 21 20 19 18 17 16 14 14 12 10 8 9 11 12 12 12 12 12 12 12 12 13 13 13 14 14 14 15 15 15 14 15 16 18 22 20 17 14 16 20 18 15 14 15 16 17 17 18 20 20 20 20 20 19 18 19 19 18 18 18 18 19 19 17 17 18 17 17 17 17 16 16 16 16 17 17 17 17 17 17 17
25 23 23 22 21 20 19 19 17 16 14 13 12 10 9 10 12 12 13 13 13 12 13 13 13 14 15 14 14 14 15 15 16 16 15 15 17 19 20 17 15 15 16 18 16 14 14 15 16 18 18 17 19 21 20 20 20 19 19 20 18 17 18 19 20 20 18 16 16 17 17 17 18 18 16 16 16 16 16 17 17 17 17 17 16
26 25 25 23 21 20 20 18 16 15 14 13 11 11 10 10 11 12 13 13 13 13 14 14 14 15 16 15 14 15 15 16 16 16 16 17 18 18 19 17 15 15 16 18 16 15 15 15 17 19 18 18 20 20 20 21 22 21 21 20 18 19 21 21 21 20 17 16 16 17 17 18 19 17 16 16 16 16 16 16 17 16 16 16 16
26 27 26 23 22 20 19 17 16 15 13 13 12 12 11 10 11 12 13 13 13 14 15 16 15 16 16 16 15 15 16 17 17 17 17 18 18 18 18 18 16 15 16 17 18 17 15 16 18 20 19 19 21 21 21 23 24 23 23 22 21 21 22 21 20 19 16 17 18 18 18 18 18 16 16 16 16 16 16 16 16 16 16 16 15
27 28 26 24 22 20 19 17 16 15 14 13 12 12 11 11 12 13 13 13 14 14 15 15 16 16 16 17 16 17 17 16 16 17 17 18 18 18 18 19 17 15 16 17 18 18 17 17 18 21 21 20 22 23 23 23 22 21 21 21 22 22 22 20 19 18 17 18 18 18 18 17 17 16 16 16 15 16 15 15 15 15 15 15 14
29 28 26 24 22 20 18 17 16 14 14 13 13 12 12 12 13 14 14 14 14 14 15 15 16 17 17 18 18 19 19 17 16 17 18 18 18 18 18 19 17 16 17 18 19 19 19 18 20 22 21 21 22 23 23 22 21 20 20 21 21 22 22 20 18 17 18 18 18 17 17 17 16 16 16 15 15 15 15 15 15 15 15 14 13
30 28 26 24 22 20 17 16 15 14 14 14 13 12 12 13 14 15 15 15 14 14 15 16 16 16 17 19 19 19 19 17 17 17 18 19 17 17 18 19 18 16 16 17 19 20 20 20 21 22 20 21 23 23 23 22 21 22 22 21 21 21 20 19 17 17 19 18 17 17 17 16 16 15 15 15 15 15 14 14 14 14 14 13 13
29 27 26 23 21 19 17 16 15 14 14 14 13 13 13 14 15 15 16 15 15 15 16 16 16 16 18 19 19 19 18 17 17 17 19 19 17 17 19 19 18 17 17 18 19 19 20 21 22 22 21 23 24 23 22 22 21 20 20 19 19 21 18 17 17 18 19 18 17 16 16 16 15 15 15 15 15 14 14 14 14 13 13 12 12
27 26 25 22 21 20 18 16 15 14 14 14 14 13 14 14 15 15 16 16 15 16 16 17 16 16 17 19 19 18 17 17 17 17 19 20 18 18 19 20 19 19 18 19 20 20 20 21 21 22 22 23 23 22 21 21 20 18 17 17 17 19 17 17 18 18 18 17 16 16 16 15 14 14 14 14 14 14 14 13 13 12 12 11 11
25 25 24 23 22 20 19 17 15 15 15 15 14 14 14 15 15 16 16 16 16 16 17 16 16 16 17 18 18 18 17 17 17 18 19 20 19 18 19 20 20 19 19 19 20 20 20 20 20 21 21 22 21 21 21 20 20 18 18 17 17 17 16 16 17 16 16 15 14 15 15 14 13 13 14 14 13 13 13 12 11 11 11 11 10
24 24 23 22 21 20 19 17 16 16 16 16 16 15 15 15 15 16 16 17 17 17 17 16 16 16 16 17 18 17 17 17 17 18 19 20 20 19 19 20 20 19 19 20 20 19 19 19 19 20 21 21 21 21 21 20 20 19 18 16 15 16 16 16 15 14 14 14 14 14 14 13 13 13 13 12 12 12 11 11 10 10 10 10 9
24 23 22 21 20 20 19 17 16 16 16 17 17 16 15 15 15 15 16 17 17 17 16 16 16 16 17 16 17 17 17 18 18 18 18 19 19 19 19 19 20 20 19 19 18 18 17 18 18 19 20 21 22 21 21 20 20 20 19 16 15 17 17 15 13 13 14 13 13 13 13 12 12 12 12 11 11 11 10 10 9 9 9 9 9
24 24 22 20 20 20 19 17 16 15 16 17 18 17 16 15 15 15 16 16 17 17 17 17 16 16 16 16 17 17 17 18 18 18 18 18 18 19 19 19 19 19 19 18 18 17 17 18 18 18 19 21 21 21 21 21 21 21 19 16 17 17 15 13 12 13 13 13 13 13 12 12 12 11 11 10 10 9 9 8 8 8 8 8 8
23 25 23 21 19 19 19 18 16 15 17 18 19 18 16 15 15 16 16 17 17 17 17 18 17 17 17 17 18 18 18 18 18 18 18 18 18 18 18 18 18 18 18 19 19 18 19 20 20 20 20 21 20 19 19 19 18 16 13 13 17 15 12 11 12 13 12 12 12 12 12 11 11 10 10 9 9 8 8 7 7 7 7 7 7
23 25 24 21 20 20 19 19 17 16 17 18 19 19 18 17 16 16 16 16 16 16 16 17 17 17 17 18 18 19 18 17 17 17 17 18 18 18 18 18 18 18 19 19 19 20 21 21 21 21 20 20 18 17 16 15 13 12 11 14 17 15 11 9 10 11 11 11 12 11 11 11 10 9 9 9 8 7 7 6 6 6 6 6 6
22 24 24 21 21 21 20 20 18 17 17 19 19 19 18 17 17 17 16 16 15 16 16 16 17 17 17 18 18 18 18 17 16 17 17 18 18 18 18 18 19 20 20 20 20 20 21 20 19 19 19 17 16 14 13 12 12 12 15 17 16 15 10 7 8 10 10 10 11 11 10 9 9 8 8 8 8 7 7 6 5 5 5 5 5
22 24 23 22 22 21 21 20 18 18 18 19 19 19 18 17 16 16 16 16 16 16 16 16 17 16 16 17 18 19 19 18 17 18 19 20 20 19 19 19 20 20 20 20 20 21 20 19 17 16 16 13 11 11 12 12 13 14 15 16 14 13 10 5 7 9 9 10 10 10 9 8 8 8 7 7 7 6 6 5 5 4 4 4 4
22 23 22 22 22 22 22 20 19 18 19 19 18 18 18 17 17 15 15 16 15 16 17 17 17 17 17 18 19 20 20 19 19 21 22 22 22 20 19 18 18 17 17 17 17 17 17 16 15 14 12 10 9 9 10 11 11 14 15 14 13 11 8 5 6 9 9 9 9 9 8 7 7 7 7 6 6 6 5 5 4 4 3 3 3
23 22 22 22 21 22 23 20 19 19 19 18 18 18 17 16 17 16 15 15 15 16 18 19 18 19 19 19 18 18 19 20 20 21 19 18 18 16 16 15 14 13 12 13 12 12 11 11 10 10 9 9 8 7 9 9 8 12 13 11 12 10 7 6 6 7 8 8 9 8 8 7 6 6 6 5 5 5 5 4 3 3 3 2 2
24 23 22 22 21 22 22 20 20 20 19 18 18 18 16 16 16 16 15 14 14 16 19 19 19 19 18 16 15 16 17 18 18 17 15 14 13 12 12 11 11 10 10 10 9 8 7 6 5 7 8 8 8 8 10 10 9 11 12 11 11 8 6 6 5 6 7 8 8 8 8 6 5 5 5 5 4 4 4 3 2 2 3 2 2
25 24 22 22 21 22 20 20 21 20 19 19 18 17 17 16 15 16 16 15 16 17 18 18 18 19 17 15 14 14 15 17 17 15 14 12 10 10 10 10 9 9 9 9 9 8 6 6 7 9 11 10 10 12 12 11 12 12 12 11 10 8 6 5 4 5 6 7 7 7 7 6 5 4 4 4 4 4 3 3 2 2 3 3 2
26 24 23 23 22 21 21 21 21 21 20 19 19 17 16 15 16 17 17 18 18 17 16 16 17 17 17 14 14 13 14 16 16 14 13 13 11 10 10 10 10 9 9 9 9 9 9 11 11 11 12 11 11 13 12 11 12 13 13 12 11 9 6 5 4 4 6 6 6 6 6 5 4 3 3 3 3 3 2 2 2 2 2 2 2
26 25 24 24 23 21 21 21 21 21 20 19 19 17 14 15 16 17 18 18 18 16 15 15 16 17 16 14 15 15 15 14 13 13 14 14 12 11 11 10 9 8 8 9 9 9 9 9 10 9 10 10 9 10 11 11 11 12 14 13 10 9 8 7 6 4 6 5 4 5 5 4 4 3 2 2 1 2 2 1 2 2 2 2 3
26 25 25 25 23 21 21 21 21 20 19 19 19 16 15 17 18 18 18 18 17 16 16 15 15 16 16 16 17 17 16 15 14 15 14 14 13 11 11 10 9 8 7 8 9 8 8 7 7 8 8 9 9 10 11 10 10 11 13 10 8 10 11 10 7 5 6 5 4 4 4 4 3 3 2 2 2 1 1 1 1 1 2 3 3
26 25 26 25 23 22 21 20 20 19 19 19 17 16 18 19 18 17 17 17 16 16 17 17 16 17 17 18 18 17 17 16 15 15 15 14 14 12 13 12 10 9 8 8 9 9 9 7 6 7 8 9 9 11 11 10 10 10 10 9 7 9 12 12 10 6 5 5 4 4 4 4 4 4 3 3 2 1 1 0 1 1 2 3 3
27 26 25 25 23 22 20 19 19 18 18 17 15 16 18 18 18 18 18 18 18 18 18 18 18 18 18 19 19 18 17 16 16 16 15 15 14 14 14 13 11 11 10 9 8 8 9 7 5 5 7 8 8 9 11 10 9 10 10 8 6 5 8 14 12 5 4 3 3 2 3 3 3 3 2 2 2 2 1 1 1 1 2 2 3
29 25 24 24 23 22 20 20 21 19 18 18 16 16 17 18 19 18 19 19 19 19 17 17 18 18 18 19 19 19 18 16 16 16 16 15 14 15 14 13 13 13 11 9 8 7 8 6 5 5 6 7 8 7 9 10 9 10 10 7 6 5 6 12 11 7 5 2 0 1 1 1 2 2 1 2 3 4 3 3 2 3 3 3 3
30 25 24 24 23 23 21 21 22 21 20 19 17 17 18 19 18 17 19 20 20 19 17 16 17 18 19 19 19 18 18 17 16 15 15 15 14 14 13 12 13 12 11 9 8 7 7 6 5 7 7 8 9 8 9 9 8 9 9 8 8 6 5 8 10 8 4 1 2 3 2 2 2 2 1 3 3 4 5 5 4 5 4 4 4
29 26 25 25 24 24 23 21 21 22 21 20 18 18 19 18 17 18 19 20 20 18 16 15 16 18 19 18 18 17 17 17 16 14 14 13 13 13 12 11 12 12 11 10 9 7 5 6 6 8 9 8 8 7 7 8 8 8 9 9 7 7 6 7 9 7 5 5 6 5 4 4 2 1 1 2 3 2 4 5 4 5 6 7 7
28 26 26 25 24 24 24 22 21 22 21 20 19 19 20 18 18 19 18 19 20 19 16 14 14 17 17 17 18 17 16 16 15 14 14 14 13 12 11 9 11 11 11 11 9 7 5 6 7 7 7 6 5 4 4 6 8 7 8 8 5 6 7 7 7 6 6 9 8 8 8 6 4 2 1 1 1 1 2 3 2 4 5 7 8
28 26 25 25 25 25 25 22 21 22 22 19 18 19 19 18 18 19 18 18 19 20 17 14 13 15 16 17 18 18 17 15 15 14 14 14 14 13 11 9 10 10 9 10 9 7 6 7 7 6 5 5 5 5 5 5 7 8 8 7 5 7 7 6 7 7 8 10 8 9 11 9 6 3 3 4 2 2 1 2 1 2 4 5 7
27 26 25 25 25 25 26 24 22 22 23 20 17 20 19 18 19 18 18 18 17 18 18 16 14 15 15 15 17 18 17 16 15 14 13 14 14 13 11 10 10 9 9 9 9 7 6 7 7 5 4 5 5 6 5 4 5 8 8 6 5 5 6 6 8 9 9 10 9 8 10 12 8 3 4 6 5 3 1 3 2 2 3 5 6
27 26 26 25 24 26 27 25 23 21 23 22 19 21 20 18 19 17 17 17 16 16 16 17 15 15 15 15 16 17 17 16 15 14 13 13 14 13 12 11 10 9 9 9 9 7 6 6 6 4 5 5 5 5 5 4 5 6 5 5 5 5 7 6 7 10 10 10 11 10 9 12 10 4 4 7 7 5 1 2 1 1 2 4 6
27 26 27 26 25 27 28 25 24 22 23 22 21 22 18 17 18 16 15 16 16 15 15 16 15 14 15 15 15 15 16 15 14 14 15 13 13 13 12 11 11 10 9 8 8 6 6 6 6 4 4 4 3 4 4 3 3 5 5 4 4 4 7 7 7 11 12 11 12 10 9 12 12 7 6 7 7 6 3 1 1 1 2 3 4
29 26 26 25 25 28 28 26 26 24 24 22 21 21 17 16 16 14 15 15 15 14 12 14 13 13 15 14 14 15 15 15 13 14 15 15 14 13 12 11 10 9 8 9 9 7 6 6 5 4 4 3 2 3 4 2 1 5 4 1 2 1 4 8 10 12 13 14 14 11 9 12 12 10 9 7 7 6 4 2 1 3 3 3 3
29 27 26 25 25 29 28 26 26 24 25 23 20 19 17 16 15 13 14 14 15 13 11 12 12 12 14 13 13 14 14 14 13 14 14 14 14 13 13 11 9 8 8 10 10 9 7 6 6 5 4 3 1 3 4 1 2 4 2 0 1 1 1 5 8 9 9 12 15 11 11 14 14 14 10 7 7 6 6 4 1 1 0 2 4
28 27 28 26 24 28 28 25 26 24 23 23 21 19 18 17 15 15 16 15 15 14 13 14 12 12 13 12 12 13 13 12 13 14 12 12 13 13 12 10 9 9 10 10 10 9 7 7 6 6 5 3 2 3 2 1 3 4 2 0 0 2 2 3 3 4 3 7 15 12 11 13 13 14 11 7 8 9 8 6 3 3 5 5 5
28 28 28 26 24 28 27 25 25 23 22 23 21 19 19 18 17 18 20 18 17 17 17 17 15 14 14 12 12 12 13 12 12 12 11 11 11 11 11 10 10 10 10 11 11 9 9 8 6 6 5 2 1 3 2 1 3 4 1 2 2 1 4 3 2 2 2 4 11 13 12 12 11 11 10 9 11 11 8 6 4 4 6 5 6
28 28 28 26 24 27 27 25 25 23 22 23 20 20 21 18 17 19 21 20 19 19 18 18 16 15 14 13 13 12 13 13 13 12 11 11 11 11 11 11 11 11 11 11 12 11 10 8 8 7 6 3 1 3 4 2 3 5 3 5 5 4 5 3 1 1 1 2 7 11 12 11 10 8 10 12 11 10 9 7 4 3 4 4 5
29 28 27 27 26 29 27 24 25 23 22 22 20 20 21 20 17 17 19 19 18 18 17 17 17 15 15 14 13 13 12 12 13 12 12 12 12 11 11 11 11 10 10 10 12 12 9 9 9 8 7 6 4 2 3 3 3 3 4 5 4 4 4 3 3 2 2 1 1 4 7 9 9 8 9 11 11 9 9 7 6 3 3 4 4
29 28 27 28 28 30 28 24 24 23 22 21 20 19 20 21 19 16 17 16 14 15 16 17 18 17 16 15 14 13 12 12 13 13 12 12 12 11 11 12 11 9 9 10 10 9 9 10 10 9 9 8 6 4 3 3 2 2 4 2 1 3 5 4 5 3 2 2 1 1 4 8 8 7 8 10 8 6 7 6 5 5 4 4 3
29 29 27 29 30 31 30 26 24 23 22 22 21 20 20 21 20 16 16 15 13 14 15 17 18 18 18 17 16 15 14 14 14 14 13 11 11 11 10 11 10 9 10 9 8 7 9 12 11 10 10 10 8 6 5 3 1 0 2 3 3 3 4 4 5 5 3 3 1 4 2 6 6 6 8 12 8 6 6 5 4 7 5 3 2
29 29 26 29 31 32 30 28 26 24 22 23 22 21 21 21 20 17 16 16 15 15 15 15 16 17 19 18 17 15 14 14 15 14 12 10 10 10 10 10 9 9 10 9 7 8 10 11 10 9 9 10 9 6 5 4 2 1 1 3 5 3 3 5 5 4 4 4 2 4 6 2 5 6 9 12 8 4 6 6 7 9 5 1 3
Wind_Direction
154 150 144 145 142 135 130 127 121 117 114 117 120 118 118 115 116 115 113 111 115 113 104 100 101 102 103 102 101 103 104 106 107 110 113 111 106 105 103 98 100 109 117 112 113 121 114 104 107 106 103 101 105 107 107 108 108 107 107 109 108 103 100 97 95 96 96 94 93 93 94 94 93 91 91 92 91 90 90 89 89 87 86 84 82
153 149 145 146 138 132 131 128 122 117 115 122 125 123 121 119 122 121 120 117 114 106 100 100 100 99 99 100 98 99 103 106 107 109 111 108 105 104 101 98 102 109 113 112 117 122 113 108 109 106 105 105 109 111 109 109 109 109 110 110 108 104 102 99 96 96 96 96 95 95 95 95 92 91 92 94 93 93 91 89 88 87 85 84 83
149 148 146 142 134 132 131 127 124 119 121 128 127 123 119 120 122 122 119 115 114 106 101 101 100 99 96 98 97 99 101 102 105 107 105 105 106 104 101 101 107 111 109 114 123 124 115 110 110 108 109 110 113 113 109 108 110 110 110 110 109 106 104 100 98 97 97 98 97 94 93 93 92 91 91 91 92 92 91 89 88 86 85 84 83
149 147 144 140 135 135 132 130 127 124 129 131 124 117 117 122 120 116 115 114 114 106 99 99 99 99 98 100 100 103 104 102 103 104 103 105 107 105 101 101 109 112 110 119 127 124 116 112 112 112 110 110 114 114 108 107 110 111 111 112 110 108 105 102 98 97 98 98 95 93 91 90 90 90 90 90 91 90 89 89 88 87 86 84 83
147 145 144 142 138 136 136 136 129 128 133 128 119 116 122 126 116 111 113 113 109 104 102 103 104 108 111 111 108 108 107 103 104 105 104 105 106 107 103 103 109 113 114 121 124 122 115 112 115 114 110 110 112 113 112 110 109 110 113 113 112 110 106 101 97 98 100 99 96 93 89 87 88 90 91 91 90 89 88 88 87 87 86 85 83
143 142 143 140 138 138 139 134 128 132 132 124 118 118 127 123 111 107 108 108 109 110 109 109 109 110 108 111 112 108 106 104 104 104 106 107 106 107 104 103 106 114 119 119 122 122 115 113 117 114 110 111 112 113 113 112 111 110 113 113 113 112 106 101 98 99 101 101 98 94 92 88 87 89 91 92 91 89 89 89 88 86 85 84 83
140 140 140 139 139 138 137 131 132 135 129 122 119 122 128 118 107 103 104 106 110 109 108 110 111 109 105 108 110 105 105 107 107 105 105 107 105 105 103 100 102 114 119 118 124 123 116 117 118 113 109 112 114 114 114 113 113 114 114 114 114 112 107 102 100 100 100 99 98 96 94 91 88 87 90 94 93 91 91 90 89 86 84 83 82
138 139 138 139 137 135 133 133 137 134 127 123 122 127 127 112 105 102 104 104 104 106 109 111 112 114 111 109 107 105 106 106 107 106 105 106 106 103 99 98 102 114 115 116 124 122 116 118 116 113 110 114 117 117 116 114 115 117 116 115 115 112 107 104 102 102 98 96 98 97 95 93 91 89 91 95 95 93 93 91 88 86 84 82 83
138 140 140 140 135 135 135 137 137 131 128 125 125 129 123 110 106 104 102 99 102 109 112 109 106 107 106 106 105 106 106 105 106 105 106 107 103 97 96 102 112 116 113 116 121 119 118 118 116 115 115 119 121 121 118 116 116 116 115 115 114 110 106 105 105 104 100 97 97 96 94 93 92 91 92 95 96 95 94 93 89 86 84 83 84
141 144 143 140 137 139 140 140 135 131 130 126 129 127 120 112 107 105 100 97 100 104 106 106 104 103 103 104 105 105 104 105 105 105 105 103 99 99 105 115 121 118 117 118 119 119 120 119 120 119 119 122 123 122 120 118 115 113 113 114 114 109 107 107 106 105 104 103 99 97 95 92 91 89 91 96 97 95 93 92 89 85 84 84 84
143 147 144 141 141 143 142 140 135 134 132 129 130 125 120 112 106 103 99 96 96 97 97 101 103 104 104 103 103 104 103 102 101 102 101 99 99 104 114 119 119 120 120 119 118 120 120 119 120 119 120 122 122 121 118 115 112 112 111 113 113 109 108 106 104 105 108 109 103 100 96 92 90 89 92 95 96 95 92 90 87 86 85 85 84
143 146 143 142 143 144 142 140 138 136 133 131 129 124 121 113 108 103 99 98 98 98 97 97 99 102 104 103 102 101 99 97 97 98 98 99 101 107 114 117 119 121 119 117 118 121 121 120 119 120 120 119 119 119 115 111 111 112 112 113 112 109 109 106 107 109 112 111 105 101 98 94 92 93 93 94 96 96 94 91 87 87 86 86 86
142 144 143 143 142 144 143 142 142 138 136 132 127 125 122 117 112 106 104 103 100 99 97 98 100 101 102 102 101 99 97 96 97 98 99 101 105 110 113 116 120 121 117 116 117 121 121 120 120 122 121 118 118 118 115 112 111 113 114 115 113 112 111 111 115 117 115 110 105 102 100 98 98 98 96 96 97 97 95 92 89 89 88 88 87
142 144 143 143 143 145 145 145 143 139 137 132 128 125 121 119 115 112 109 106 103 100 99 100 102 102 101 102 101 99 98 97 96 97 99 101 105 110 114 117 120 120 118 115 116 119 120 120 120 121 121 121 120 118 116 114 114 114 115 117 117 115 113 115 122 122 116 109 106 104 103 101 101 100 100 99 98 97 95 93 91 91 90 90 88
142 143 143 143 145 146 146 145 143 140 137 131 127 123 121 119 115 113 109 106 104 102 102 103 103 102 102 103 102 98 97 97 96 98 99 100 105 108 113 116 118 119 118 116 117 119 120 122 123 123 123 123 122 121 119 117 117 115 113 116 118 116 116 121 123 120 115 111 109 107 105 103 102 103 102 101 100 99 97 95 93 92 92 91 88
142 142 143 144 145 145 145 145 143 140 135 130 125 122 121 116 113 111 108 107 104 102 104 105 105 103 104 104 101 97 96 98 98 99 99 101 104 105 109 114 117 119 118 117 118 121 123 124 124 124 126 124 124 125 123 120 118 116 115 115 116 116 119 122 119 117 114 112 112 110 107 105 105 105 104 103 102 101 98 96 94 94 94 91 89
142 143 143 144 146 146 146 146 144 139 133 129 126 125 121 116 113 110 109 106 104 104 104 106 107 105 103 101 99 98 98 98 99 99 100 103 103 103 107 112 115 115 115 117 119 122 124 124 123 124 126 125 127 127 123 119 117 117 118 117 115 118 123 121 117 115 113 113 113 111 109 109 109 107 105 104 103 102 99 98 98 97 95 92 91
143 143 144 144 146 146 148 147 144 140 135 132 129 126 121 118 114 112 111 108 106 107 106 107 107 105 102 100 100 100 100 98 98 98 100 103 105 106 107 109 113 114 116 118 119 120 121 122 123 124 124 125 127 124 119 116 116 117 118 120 119 121 123 121 118 115 115 116 117 115 113 112 110 108 106 105 105 103 102 102 102 100 97 96 94
143 143 142 141 145 147 150 148 146 142 138 135 129 125 122 119 116 115 113 111 110 109 109 108 106 105 102 101 101 100 100 98 98 98 101 105 107 107 107 109 113 117 119 118 118 119 120 121 122 122 123 127 126 122 118 117 117 116 114 119 123 119 116 118 122 121 120 121 122 120 117 116 113 110 107 105 105 104 104 106 105 103 101 99 95
142 141 140 143 148 149 150 148 145 143 140 135 129 126 122 120 118 117 116 114 113 112 112 110 107 106 103 100 100 100 99 98 99 99 103 106 108 109 111 114 117 119 120 120 120 120 120 120 120 121 125 129 127 124 122 121 120 118 117 118 120 119 119 124 129 127 126 127 127 124 121 120 117 113 110 108 106 105 107 108 106 104 102 102 97
146 144 145 149 150 148 148 146 145 145 141 135 130 127 123 122 122 119 117 116 116 115 114 112 110 108 106 106 105 104 101 101 101 102 103 105 109 111 113 117 119 121 122 122 122 121 121 121 121 122 127 130 129 126 124 123 123 124 124 121 124 128 131 138 138 132 132 133 131 127 124 123 119 117 116 114 112 111 112 111 107 104 102 102 99
150 146 148 152 150 149 150 148 150 148 141 138 134 130 128 127 125 122 119 118 118 116 115 116 116 114 112 112 110 108 104 104 105 106 106 107 110 112 115 117 119 121 122 122 122 123 124 123 122 119 121 124 126 126 124 123 123 125 126 125 132 136 135 137 138 135 136 137 133 128 126 124 121 122 122 122 121 120 119 117 111 106 102 97 95
143 141 146 151 152 155 155 154 154 149 144 142 138 135 133 129 127 125 123 122 121 119 120 120 119 119 117 115 114 109 106 105 107 109 109 109 112 113 116 118 120 121 120 120 119 122 125 124 121 118 119 120 121 122 121 119 114 112 116 124 134 139 136 131 136 140 140 140 135 131 130 128 127 129 130 128 128 129 128 123 115 110 105 99 95
139 138 144 149 154 155 153 155 155 150 148 144 139 137 133 131 131 130 128 127 127 127 127 124 121 122 121 119 116 112 110 109 111 113 113 114 115 117 119 122 124 124 122 122 120 121 123 123 121 121 123 122 121 119 117 115 113 115 120 124 131 144 148 136 139 145 145 143 138 134 135 134 135 137 135 134 132 132 131 126 119 111 107 103 100
137 137 143 148 153 151 149 152 152 151 149 145 141 139 137 136 137 137 134 133 131 132 132 128 122 122 124 122 118 115 113 112 114 115 115 116 117 119 121 124 125 125 126 126 126 127 128 128 127 127 128 127 124 119 118 121 124 128 130 129 133 149 157 149 144 148 148 146 141 138 141 142 145 143 137 138 136 134 136 130 119 111 108 106 102
139 140 146 150 153 153 150 149 152 152 149 148 145 142 143 142 143 143 139 135 133 134 136 132 124 123 126 126 121 118 117 115 118 118 116 116 117 118 119 121 121 123 127 128 131 134 135 135 137 137 136 139 137 127 126 127 132 137 137 138 147 159 165 163 151 150 151 149 145 143 148 154 153 147 142 142 140 142 142 129 121 113 105 104 103
145 146 148 151 155 155 151 151 157 154 150 152 148 146 146 143 146 146 141 135 132 134 137 133 127 126 128 129 125 122 122 122 124 123 119 119 120 121 122 123 126 130 135 138 141 145 147 150 152 150 149 158 162 154 143 133 135 149 149 143 150 160 159 152 149 152 155 154 155 154 159 165 159 152 150 150 148 149 146 133 130 125 109 111 126
146 147 150 153 157 156 152 154 158 151 152 155 149 147 148 150 151 148 143 136 133 135 138 136 132 133 135 135 130 128 127 127 130 129 124 121 123 128 129 128 133 139 146 148 149 152 158 172 181 168 162 166 164 156 149 140 131 146 161 155 146 148 142 131 130 145 160 163 165 165 167 167 164 165 161 157 159 158 151 144 151 157 156 167 176
145 150 152 155 157 156 156 156 155 153 155 155 151 151 154 154 153 149 143 138 136 134 138 139 137 137 139 138 134 135 135 133 131 129 127 128 135 141 137 136 139 140 144 148 147 143 140 151 163 161 155 151 144 142 143 145 136 136 153 159 152 149 150 140 123 127 151 168 173 172 172 169 169 173 168 163 169 171 164 165 180 197 197 193 206
148 154 153 156 157 157 160 158 156 156 155 153 154 157 157 152 150 153 145 140 139 133 138 142 141 139 136 140 145 144 140 133 131 132 134 142 150 145 134 137 142 139 136 139 139 136 132 138 150 158 158 156 152 151 149 152 154 146 145 154 158 158 164 167 146 120 128 152 170 172 171 172 178 177 170 174 179 179 176 183 199 212 213 221 237
149 154 155 157 157 158 161 159 157 156 154 156 158 156 154 148 150 155 148 142 140 134 137 143 150 148 140 145 151 150 144 137 141 147 148 150 151 142 134 135 139 136 127 129 130 130 135 139 151 154 155 162 164 161 154 151 157 156 152 155 159 163 181 186 168 126 105 119 143 157 163 164 168 163 159 173 169 164 168 190 207 210 222 254 272
148 153 156 156 155 157 159 158 156 155 159 161 158 151 148 147 146 149 146 142 140 140 142 143 152 154 150 151 151 150 148 147 151 153 151 150 147 140 137 135 133 133 123 126 126 126 133 134 142 139 135 147 152 151 150 146 144 149 159 165 163 162 174 184 178 143 101 98 115 120 125 126 124 129 135 133 125 112 134 204 214 223 249 268 285
147 152 155 156 155 155 156 157 155 154 159 160 154 147 146 145 145 146 146 149 151 154 150 141 145 153 153 152 151 150 147 150 151 149 147 147 144 139 139 136 133 140 138 136 132 130 135 136 141 141 139 141 143 149 150 148 144 147 152 155 164 167 175 184 181 159 116 104 112 105 98 97 91 99 101 100 109 96 94 325 319 290 290 291 299
145 150 155 157 155 155 155 160 160 153 154 158 152 146 144 141 146 152 152 154 154 155 150 142 144 152 151 148 150 151 150 153 151 149 150 149 146 143 145 143 140 147 148 145 141 142 147 151 156 155 159 155 151 158 155 146 145 151 151 150 162 160 172 183 183 172 137 104 87 91 99 95 75 81 79 72 81 72 68 34 3 350 341 336 334
145 153 158 157 154 152 155 160 161 156 154 156 154 153 149 143 150 154 152 151 147 148 150 145 145 147 145 145 147 150 153 155 153 154 155 152 149 147 150 151 150 148 142 137 140 154 161 160 152 143 152 148 141 148 147 144 140 145 150 151 152 132 138 168 179 182 156 105 352 167 171 120 40 20 48 82 84 72 61 56 46 28 14 8 358
148 157 159 156 152 152 156 157 157 156 154 153 155 158 152 148 152 150 148 148 145 149 155 152 149 148 147 148 150 152 153 153 153 153 152 152 150 147 146 146 150 147 140 138 138 149 160 158 141 129 126 116 118 127 134 144 141 141 151 141 139 145 137 148 162 171 164 206 225 201 234 241 312 345 97 117 102 81 65 65 61 48 37 29 23
150 159 159 155 153 153 155 156 157 155 153 155 158 158 153 152 151 145 148 151 148 149 155 157 155 157 157 156 158 157 154 155 154 150 149 154 151 145 143 145 150 148 143 139 128 127 140 146 134 127 128 119 122 135 142 155 146 139 147 139 139 158 154 150 159 170 181 198 206 208 220 220 241 297 148 138 124 97 66 64 54 46 47 43 38
153 159 158 155 154 153 154 158 157 153 155 157 157 157 156 156 150 144 147 152 151 149 154 161 159 162 163 161 163 159 156 156 156 154 153 155 153 147 145 150 153 147 141 137 130 130 135 134 127 126 132 131 134 135 136 157 153 146 146 139 146 161 157 165 175 185 192 192 203 211 212 215 221 232 219 196 172 177 66 61 43 34 44 40 35
155 160 158 154 154 152 154 160 156 154 159 158 154 154 155 158 156 149 146 149 154 155 160 165 164 166 166 164 166 162 158 158 160 162 158 156 157 154 147 148 152 147 142 140 137 143 144 135 125 122 124 130 134 113 92 104 124 134 143 139 139 155 163 174 184 198 204 198 194 197 212 222 220 226 230 223 216 212 89 66 62 33 34 27 23
155 159 159 154 154 155 155 159 158 157 160 157 154 154 153 156 158 157 154 152 158 162 165 166 167 170 169 168 169 167 164 163 165 168 165 160 160 158 153 151 155 157 153 145 137 139 150 149 133 121 120 124 130 118 101 97 109 118 128 137 143 168 190 199 202 209 213 212 201 191 213 225 218 209 223 220 218 216 93 63 63 42 40 22 10
156 160 159 155 157 158 155 158 163 162 160 158 159 159 156 156 158 160 161 159 158 161 167 169 169 171 171 172 171 171 171 167 165 168 169 167 164 162 157 156 162 165 162 153 142 137 147 157 147 137 128 120 122 118 116 125 127 132 144 156 160 186 206 211 223 227 228 224 214 197 199 218 218 188 196 210 213 219 210 39 12 42 40 9 2
157 159 159 159 160 159 157 161 166 167 165 162 162 165 165 165 165 166 167 165 162 164 169 172 173 172 172 175 174 173 175 171 165 165 168 169 169 167 160 162 167 167 165 159 153 143 143 152 150 156 153 131 116 116 137 144 145 173 179 174 178 207 216 218 236 240 240 231 220 210 196 208 212 181 160 186 204 221 228 271 278 304 324 335 351
157 158 158 161 161 160 161 165 168 170 171 166 166 170 171 170 171 174 174 168 168 169 168 174 179 177 175 177 178 177 177 174 169 167 166 168 173 169 165 169 169 166 161 160 164 158 151 159 161 169 177 162 126 144 177 203 197 179 165 143 202 225 230 238 243 243 252 243 224 214 196 193 195 177 151 159 193 218 218 208 288 302 303 327 7
157 159 163 165 164 163 164 168 170 173 173 169 169 171 170 171 173 179 179 168 170 173 170 179 184 179 178 180 181 179 177 176 175 171 165 167 171 169 169 169 170 174 164 159 166 167 166 179 186 190 196 205 186 166 188 202 135 159 139 258 227 45 265 269 260 241 250 236 221 212 192 187 189 185 171 160 177 194 198 199 255 337 97 68 38
160 163 168 171 168 166 168 171 171 173 176 172 171 173 171 173 173 172 171 162 164 171 173 181 186 183 181 182 181 178 178 178 177 173 167 168 171 174 175 169 172 181 173 167 168 170 176 184 196 201 205 233 225 174 176 160 152 136 75 234 87 45 240 287 304 251 241 204 214 214 189 187 189 187 187 186 182 180 190 204 190 94 86 73 37
164 166 170 174 171 168 171 174 173 174 178 175 173 176 175 176 172 166 163 157 159 170 177 181 187 189 186 185 182 177 180 181 178 173 171 175 176 178 179 174 178 179 175 178 175 178 187 191 204 204 193 210 229 194 180 147 175 166 164 254 242 288 268 291 19 281 342 144 191 190 180 187 180 177 193 198 191 189 201 217 182 106 62 51 35
166 168 170 175 174 170 172 176 176 176 179 179 178 179 179 178 174 169 166 164 168 175 180 185 189 190 188 188 186 183 183 182 179 174 174 183 182 181 182 182 184 179 178 184 181 182 189 195 207 203 189 183 199 199 184 191 202 193 253 294 275 284 307 312 37 83 4 90 160 169 183 193 171 167 190 190 193 202 211 220 199 124 60 52 32
168 170 171 176 178 175 173 175 177 178 181 182 182 183 181 180 178 173 169 173 179 179 178 185 191 192 190 188 189 188 183 179 179 178 180 187 184 182 184 184 184 179 183 187 180 180 187 196 201 197 192 193 200 187 165 188 202 216 276 304 280 297 337 320 331 64 102 77 134 164 176 182 175 176 187 191 201 209 203 206 211 181 88 59 42
169 173 174 176 178 178 178 177 176 180 184 183 184 186 183 182 182 178 174 175 180 180 178 184 191 194 191 190 192 190 184 182 184 185 189 191 185 181 181 182 182 180 184 183 176 184 197 195 194 195 196 198 203 200 179 186 195 258 273 270 267 325 342 331 341 18 78 97 0 317 145 158 174 177 186 194 187 174 178 191 216 196 118 81 118
171 176 176 176 175 175 179 181 178 181 185 185 185 187 185 183 184 183 177 174 175 178 178 181 188 189 187 189 193 193 190 186 186 190 192 188 181 183 185 184 185 186 186 181 181 195 198 194 197 199 197 200 204 206 209 209 174 317 270 262 263 317 336 337 6 24 33 69 38 323 35 130 130 111 156 175 150 122 151 158 181 174 138 104 139
172 177 176 173 173 173 177 181 182 183 186 187 186 189 188 184 185 186 181 177 179 181 179 180 185 185 183 185 189 193 193 187 186 190 188 184 184 187 194 195 192 194 190 186 192 192 193 201 206 200 193 197 197 198 216 215 192 176 248 266 247 253 298 301 323 17 38 35 39 341 353 105 142 109 139 163 155 143 151 133 140 153 148 18 343